Location: Berg
(47.2344°N, 9.5296°E)
Time: 11:45:27
(UTC+00:00)

Cosmos 1726 Rocket - Pass Details

Date: 24 January 2021
Orbit: 604 x 628 km, 82.5° (Epoch: 06 March)

Event Time Altitude Azimuth Distance (km) Brightness Sun altitude
Rises 17:05:04 0° 346° (NNW) 2,889 6.9 -9.1°
Reaches altitude 10° 17:07:19 10° 343° (NNW) 1,983 6.2 -9.5°
Maximum altitude 17:11:37 56° 265° (W) 739 4.4 -10.2°
Drops below altitude 10° 17:15:54 10° 188° (S) 1,982 6.5 -10.9°
Sets 17:18:09 0° 184° (S) 2,887 7.3 -11.2°
